Location: Napa Junction
(38.1874°N, 122.2508°W)
Time: 23:38:56
(UTC+00:00)

COSMOS 2455 - Pass Details

Date: 06 December 2024
Orbit: 901 x 907 km, 67.1° (Epoch: 19 January)

Event Time Altitude Azimuth Distance (km) Brightness Sun altitude
Rises 14:05:16 0° 163° (SSE) 3,511 6.5 -12.8°
Reaches altitude 10° 14:08:32 10° 145° (SE) 2,577 6.1 -12.2°
Maximum altitude 14:12:28 18° 104° (ESE) 2,046 5.9 -11.5°
Drops below altitude 10° 14:16:25 10° 62° (ENE) 2,590 5.9 -10.7°
Sets 14:19:41 0° 45° (NE) 3,537 6.3 -10.1°
